Theta_e
334 329 332 335 332 330 326 323 302 309 306 297 297 297 296 305 305 301 300 300 298 303 305 306 306 308 305 304 304 306 308 307 309 302 299 310 315 317 320 322 324 323 324 326 328 327 327 331 333 333 334 335 336 337 338 340 340 340 341 341 342 343 344 344 344 344 345 345 346 346 346 345 346 346 346 347 347 346 345 344 344 345 346 347 348 347 347 347 347 348 348 348 348 347 347 348 348
334 331 331 334 329 330 318 320 307 301 300 295 297 300 299 301 301 299 298 301 304 303 304 304 305 306 308 307 305 306 308 308 309 308 311 314 315 315 318 321 323 321 323 325 326 326 326 328 332 332 333 334 335 335 336 337 337 338 340 340 341 341 342 342 342 343 343 343 342 343 343 343 342 343 343 343 343 343 342 341 341 342 343 345 347 348 348 348 347 347 346 346 347 346 346 346 347
334 330 329 330 327 325 319 316 300 299 298 293 297 298 303 297 297 301 303 303 304 305 305 305 306 306 306 308 305 304 300 312 311 311 309 314 309 310 317 321 322 322 323 324 324 324 325 327 331 331 332 332 333 334 335 335 335 337 338 338 338 338 338 339 339 340 339 340 341 340 340 340 340 339 340 341 340 340 340 339 338 339 341 342 344 345 346 346 346 347 347 347 346 343 344 344 345
331 333 328 329 320 322 311 308 304 297 295 295 295 301 300 299 300 303 304 305 304 304 305 304 303 307 305 302 304 306 306 307 311 310 307 309 310 313 315 318 320 320 320 322 323 323 324 328 330 331 331 331 332 333 333 334 334 336 336 336 336 335 336 337 338 337 338 338 338 337 337 337 337 337 337 337 337 337 337 337 336 336 338 339 340 342 343 344 343 344 344 345 343 340 338 339 340
329 332 331 325 321 314 311 306 302 301 296 296 294 300 300 303 303 304 304 304 304 304 304 304 303 307 307 305 306 303 305 310 310 313 309 310 313 313 314 318 318 317 318 320 322 322 323 328 329 330 331 331 332 332 332 332 333 334 334 334 334 334 334 335 335 336 336 336 335 335 334 334 334 335 335 335 335 334 334 334 334 334 334 336 337 339 340 341 340 341 341 342 340 338 336 335 335
328 327 332 327 316 317 312 300 298 297 300 300 297 298 301 303 304 304 303 304 304 304 305 303 305 303 303 305 307 303 311 306 310 311 311 308 311 314 314 317 314 315 317 318 320 320 321 326 327 328 330 330 330 330 330 330 331 331 331 331 331 331 332 332 332 332 333 333 333 332 332 332 332 332 332 332 332 332 332 332 332 332 332 332 333 334 336 337 338 338 338 338 337 336 334 333 333
326 322 322 322 318 314 302 298 297 298 301 302 301 300 302 303 304 304 302 302 304 304 305 305 305 305 301 305 306 308 312 315 311 313 313 310 312 312 313 310 312 313 316 316 316 317 320 325 326 327 328 328 328 328 328 329 329 330 330 330 329 329 329 329 330 330 330 331 331 330 329 328 329 329 329 329 329 329 328 328 329 329 328 329 329 330 331 332 333 334 335 334 334 333 331 331 330
328 320 318 309 306 303 298 296 296 297 301 303 302 302 304 304 305 303 302 301 300 299 302 306 306 303 302 307 301 307 310 312 311 311 310 309 310 311 312 309 309 310 313 314 314 315 320 323 325 326 326 326 327 327 327 327 328 328 328 328 327 327 327 328 328 328 328 328 328 327 325 325 325 326 326 326 326 326 325 325 325 325 325 325 325 325 326 327 328 329 329 329 328 328 327 327 326
323 318 321 311 302 306 299 297 298 303 303 302 301 308 309 305 304 303 301 303 302 303 302 303 303 297 301 302 304 306 308 312 311 312 309 309 309 309 308 308 306 308 311 312 313 313 314 321 323 324 325 325 326 326 326 326 325 326 326 326 326 325 325 325 325 325 325 325 325 325 324 323 323 325 325 325 324 324 324 323 324 324 324 324 324 325 325 325 326 326 325 325 325 325 323 324 323
318 316 308 306 306 297 298 299 298 299 302 303 302 302 304 304 304 303 302 301 302 302 304 305 303 300 303 301 302 305 305 310 310 309 308 309 309 308 307 308 308 307 307 309 311 311 311 317 319 321 322 323 324 324 324 324 324 324 324 325 324 323 323 323 323 323 323 323 323 323 323 323 322 322 323 323 324 324 323 323 323 323 323 323 323 323 323 323 324 324 324 324 323 322 322 321 321
309 316 315 304 300 296 295 295 299 304 302 304 303 305 304 304 304 302 303 302 304 302 303 304 301 301 302 302 304 308 309 308 307 306 308 308 307 306 304 307 307 307 306 306 307 309 309 310 316 318 319 320 321 321 321 322 322 322 322 322 322 321 321 320 320 320 320 321 321 321 321 321 321 321 321 321 321 321 322 321 321 321 321 321 321 321 322 321 321 322 322 323 321 321 321 321 320
306 308 310 300 296 296 297 297 299 301 303 303 302 303 303 304 306 302 302 301 302 302 302 303 302 304 301 301 304 306 307 306 307 307 307 307 305 306 305 304 308 307 307 306 306 305 306 308 308 314 316 316 318 318 319 319 319 319 319 319 320 320 319 319 318 318 318 318 318 318 318 318 318 318 318 318 318 318 319 319 318 319 319 319 320 320 320 320 320 320 320 320 319 319 320 320 320
308 309 304 301 298 298 300 298 298 299 300 301 302 303 303 303 301 302 302 302 303 301 302 304 305 306 301 300 304 306 305 306 308 306 306 304 305 305 305 304 305 306 306 306 304 305 307 304 307 308 311 314 314 314 315 316 316 316 316 317 317 317 317 317 316 316 315 315 314 314 314 315 315 315 314 314 314 315 315 316 316 316 316 317 318 318 317 318 318 318 317 318 318 318 319 319 319
310 311 306 299 302 299 298 298 298 296 297 300 302 303 304 302 303 304 302 301 301 302 305 307 306 305 300 303 300 302 303 307 306 306 305 304 304 303 304 303 305 304 306 305 303 304 303 303 303 304 307 306 307 310 312 313 314 314 314 314 314 313 313 314 313 312 312 312 312 312 311 311 311 312 312 312 311 312 312 313 314 315 315 316 317 316 316 316 316 317 317 316 317 317 317 317 318
310 311 305 301 296 297 298 296 298 298 296 301 302 303 303 305 305 305 302 301 301 303 306 308 307 301 296 299 301 303 305 307 305 305 305 304 304 302 304 304 305 304 303 302 302 302 302 303 303 304 306 305 305 303 304 308 311 312 312 312 312 312 311 310 309 309 309 309 309 309 309 309 308 308 309 309 309 308 308 309 311 313 312 313 314 314 314 314 314 315 314 315 315 315 315 315 316
314 310 305 300 295 296 298 300 301 299 297 300 302 304 302 303 304 303 304 302 305 306 306 300 306 301 303 303 305 305 306 305 305 305 303 302 303 303 303 302 300 301 301 301 300 301 301 302 302 303 304 305 305 302 302 302 308 309 309 309 309 310 309 308 308 307 306 306 305 306 308 309 307 306 307 306 307 307 306 306 309 310 310 310 312 312 312 312 313 313 313 313 314 313 312 313 315
314 311 300 298 295 296 299 300 300 295 302 301 302 302 299 300 303 304 301 303 302 302 301 304 303 306 303 303 306 306 305 305 305 302 302 300 300 299 299 298 298 299 303 300 300 301 302 301 302 302 303 304 304 303 301 301 304 306 306 307 307 307 307 307 306 307 307 307 307 308 307 303 301 301 301 302 309 305 307 306 307 309 309 308 310 311 311 310 312 311 311 312 312 309 308 310 312
313 302 298 295 297 297 302 301 301 303 300 299 299 300 301 299 300 302 303 301 300 301 301 303 304 304 303 303 306 306 304 303 302 300 299 298 299 297 297 297 297 296 299 299 300 301 300 301 301 302 302 303 303 305 304 304 304 306 301 302 302 304 306 307 304 303 308 303 306 303 301 301 300 299 300 305 301 304 305 307 307 306 308 307 308 308 309 309 310 310 310 310 309 308 307 303 303
306 301 300 295 299 301 302 302 302 299 299 302 302 301 301 300 300 301 298 298 299 298 300 301 301 302 299 301 304 302 302 301 300 300 299 299 298 297 297 297 296 297 298 298 298 300 300 300 301 301 302 302 302 303 305 303 302 302 302 300 302 305 304 303 302 302 301 302 302 300 301 300 301 300 300 303 303 308 304 308 306 305 306 305 305 306 306 307 307 307 307 307 306 306 301 299 299
304 302 296 298 304 302 304 305 303 303 302 301 301 301 300 301 302 301 298 297 299 297 297 298 300 300 298 299 303 301 301 300 300 299 299 299 298 298 297 297 296 297 298 298 298 300 300 300 300 300 301 301 301 301 303 301 300 301 301 301 301 301 302 302 301 301 301 301 302 299 300 301 301 299 309 307 305 300 300 304 306 305 305 305 303 303 304 305 304 305 305 305 305 301 299 299 299
305 300 297 300 303 300 302 303 303 302 302 301 300 301 299 301 301 299 299 296 297 300 302 301 300 301 301 299 301 301 300 300 300 300 299 299 299 300 298 298 297 298 298 298 299 299 299 300 299 300 301 301 300 299 301 299 300 299 300 300 301 299 300 300 300 300 301 301 300 300 300 300 301 299 299 298 298 298 296 296 297 296 297 296 302 295 296 297 297 296 296 298 295 296 296 297 298
308 301 303 303 303 300 303 302 300 301 301 300 299 298 299 303 301 299 299 296 296 299 303 303 304 304 303 298 300 301 300 300 299 299 299 299 299 299 299 298 299 298 298 297 298 298 299 299 299 300 300 300 300 299 300 300 301 298 299 299 299 300 302 300 300 300 300 300 299 299 300 299 299 298 298 297 297 297 296 295 295 295 294 295 296 294 294 295 294 294 295 295 294 295 295 296 296
297 300 302 303 303 301 304 303 301 299 300 298 298 300 301 300 299 300 300 299 301 304 303 304 303 304 304 301 300 300 299 299 299 299 299 300 300 300 300 299 298 297 298 297 298 298 299 299 299 299 299 299 300 299 299 298 298 299 299 299 299 298 299 299 298 297 298 299 299 298 299 297 297 296 296 296 295 296 295 294 294 294 294 293 294 293 294 293 293 293 293 294 294 294 294 295 295
300 297 301 302 303 301 303 301 298 298 299 298 300 299 298 298 296 300 299 302 303 304 304 303 302 303 302 300 300 300 300 300 300 300 301 301 301 301 301 299 299 298 297 298 298 297 299 299 300 299 298 299 299 299 297 295 298 299 299 299 299 299 299 298 297 297 299 297 298 297 298 296 295 294 294 294 294 294 295 294 294 293 293 292 294 293 293 291 291 292 293 293 293 293 293 294 294
298 298 301 302 301 301 302 299 297 298 298 299 300 297 297 299 298 299 299 302 303 303 305 302 302 301 302 300 299 300 300 300 300 301 302 301 302 302 302 300 299 298 297 298 298 297 298 299 299 298 298 299 298 298 296 296 297 298 296 296 296 298 298 297 296 298 297 296 297 297 297 296 294 294 293 294 294 294 294 294 293 292 293 292 293 291 292 291 291 291 292 292 292 292 292 292 293
301 301 301 300 300 302 301 300 300 299 299 299 297 296 298 299 300 298 300 302 303 303 302 302 300 300 300 300 300 300 300 300 301 301 301 302 302 302 302 301 299 298 298 298 298 296 297 298 298 297 298 298 298 297 296 296 297 296 296 297 295 297 296 297 297 296 295 295 295 296 296 295 294 293 293 293 293 293 293 293 293 292 292 291 290 291 291 291 290 290 291 292 292 291 292 292 293
299 299 299 298 299 300 300 300 300 300 299 298 296 296 297 299 298 294 301 302 303 303 302 303 301 299 300 300 300 300 300 300 301 302 301 301 302 302 302 302 300 298 298 298 298 296 297 297 297 297 297 298 297 296 295 296 297 296 297 296 294 295 296 296 296 296 295 294 295 295 295 295 294 294 293 292 292 292 292 292 292 292 291 290 290 290 291 291 291 291 291 291 291 291 291 291 292
300 299 298 298 299 300 300 300 300 299 298 299 298 296 297 298 297 296 300 300 302 301 302 302 302 300 299 300 300 300 301 302 301 301 300 300 301 301 301 301 301 298 298 297 297 296 297 297 297 296 297 298 297 296 297 296 296 296 297 296 295 296 296 295 295 295 295 294 295 295 294 294 294 293 293 293 292 292 291 292 292 291 290 290 290 290 291 291 291 291 291 292 291 291 291 290 292
299 297 294 297 299 298 300 299 299 299 297 299 299 295 293 295 293 298 301 300 300 300 300 300 301 301 299 299 299 299 300 300 301 301 301 302 302 302 301 302 302 299 298 298 297 297 296 296 296 296 296 297 296 295 296 296 296 297 296 296 296 297 295 295 294 295 294 295 294 294 293 294 293 293 293 292 292 291 291 291 290 291 290 290 290 290 291 290 289 289 290 291 290 290 290 290 292
299 298 295 295 295 295 300 301 301 297 297 298 297 287 291 294 297 299 301 300 299 299 298 298 299 299 299 299 299 299 299 299 299 301 301 302 302 302 301 302 302 300 297 298 297 296 296 297 297 296 296 296 295 295 296 295 295 295 296 295 296 295 293 294 295 294 294 294 294 293 293 293 293 292 292 292 291 290 291 290 290 290 289 290 290 290 289 289 288 289 289 289 291 290 288 289 288
293 297 297 291 290 290 299 300 299 296 297 297 297 287 290 296 297 299 301 300 298 297 297 298 299 299 299 298 299 299 299 300 300 301 302 302 302 302 302 302 302 300 297 297 297 296 296 296 297 296 297 295 295 296 296 295 295 295 294 294 294 293 294 293 293 293 292 293 293 293 293 293 292 292 292 291 291 290 289 289 289 289 290 290 288 289 289 288 288 288 288 288 288 288 288 289 288
295 291 288 292 289 292 298 298 297 295 295 297 295 288 290 295 298 299 300 299 299 297 297 297 298 299 299 299 298 299 299 300 300 301 302 302 302 301 301 301 301 299 298 297 297 296 295 295 296 295 296 295 294 295 295 295 295 294 294 296 293 294 292 293 292 293 293 292 293 292 293 292 292 291 291 291 290 289 289 288 288 289 289 289 289 289 289 288 288 289 288 288 286 286 288 286 287
296 292 289 290 292 294 296 296 297 298 294 295 295 289 292 293 297 298 298 298 298 297 297 298 299 299 300 299 299 299 299 298 299 300 300 302 302 301 301 301 300 300 298 297 296 295 294 294 295 294 295 295 294 295 295 294 294 293 293 293 294 294 292 292 292 292 293 292 292 292 292 292 292 291 291 290 289 289 288 288 288 289 289 288 288 288 287 289 287 289 288 289 287 286 286 285 286
291 294 291 293 292 293 292 294 295 297 295 292 294 291 292 295 295 297 297 298 297 296 297 298 299 299 299 300 298 298 298 298 298 299 299 301 301 301 301 301 300 299 298 297 296 295 294 294 294 294 294 294 294 294 294 293 293 293 292 293 294 292 292 292 292 292 292 291 291 292 292 291 291 291 290 290 289 289 288 288 288 288 288 287 287 287 287 287 287 287 286 286 287 286 285 285 285
290 290 289 290 292 294 294 293 294 295 294 292 292 291 292 294 296 298 298 297 297 297 297 298 298 298 299 299 299 298 298 298 299 299 299 300 300 300 299 299 299 298 297 296 296 295 294 294 294 295 294 294 294 294 294 293 293 292 292 292 291 291 292 291 291 290 291 291 290 292 292 291 292 291 290 290 288 287 287 287 287 288 287 287 287 286 286 287 287 286 285 285 286 286 285 285 285
293 293 292 292 290 292 293 296 294 296 292 291 292 291 293 294 295 297 299 300 298 297 297 298 298 299 299 299 299 299 299 298 299 299 299 300 300 300 298 298 298 297 296 296 295 295 294 294 294 294 294 294 294 294 293 292 291 291 290 290 290 290 290 290 291 290 291 290 292 291 291 290 290 290 289 289 288 287 286 286 287 288 288 287 287 286 285 285 285 284 284 285 285 285 286 286 286
296 294 293 292 292 293 296 296 295 295 292 291 292 293 293 294 296 297 298 299 298 298 297 297 297 298 299 299 298 299 299 299 299 299 299 299 299 298 297 296 296 295 294 294 294 294 294 294 293 293 293 294 293 292 292 291 290 289 289 289 289 289 290 289 290 290 290 290 291 291 291 290 290 289 289 289 288 289 286 286 286 287 287 287 286 286 286 285 285 285 285 285 285 284 284 284 285
295 294 292 292 292 291 295 295 292 293 291 289 292 292 293 294 295 296 297 297 296 297 297 297 298 298 299 298 298 298 299 301 299 297 298 298 297 297 295 295 295 293 293 293 293 294 293 294 293 293 293 293 293 292 292 291 291 290 290 289 289 289 289 289 288 289 290 291 291 290 290 289 290 289 289 288 288 286 286 286 286 286 286 286 286 286 286 288 286 285 285 283 284 283 283 284 285
294 292 291 289 291 294 296 296 291 292 290 288 291 290 292 294 295 296 297 297 298 298 298 298 298 298 298 298 298 297 298 296 296 297 297 296 296 296 294 294 294 294 293 293 293 293 293 293 293 293 293 292 292 292 292 291 291 291 291 290 290 289 289 290 289 289 290 290 290 290 290 290 290 289 288 288 288 287 286 285 285 285 285 285 285 284 285 284 284 284 284 283 282 283 283 285 285
292 290 287 287 292 290 288 291 291 290 290 288 289 289 291 294 295 296 298 298 299 300 300 300 300 299 298 299 299 299 298 296 295 295 295 295 295 294 293 292 293 293 292 292 292 293 293 293 292 292 292 292 292 292 292 291 291 291 291 291 291 290 288 290 290 289 289 289 289 289 289 289 289 288 288 287 288 287 286 285 285 285 285 285 285 284 283 283 283 283 284 284 283 280 281 281 285
292 292 290 290 291 292 291 291 290 291 291 291 288 287 288 291 292 293 296 298 297 298 298 298 299 300 300 301 300 302 298 297 295 295 294 293 293 293 292 292 293 292 292 292 292 293 293 292 293 293 292 292 292 292 292 291 292 291 290 290 289 289 288 287 287 286 288 288 288 288 288 289 288 288 288 287 287 286 286 285 284 284 284 285 284 283 283 283 283 283 283 283 282 281 280 281 282
290 293 293 293 293 292 293 294 293 288 287 289 290 283 284 290 292 293 295 293 294 296 295 296 297 298 299 298 299 299 300 298 297 296 294 293 293 292 291 291 291 292 292 292 292 293 292 292 292 293 292 292 291 292 292 292 291 290 288 287 286 285 285 285 285 286 286 287 287 288 288 288 288 287 287 287 286 286 285 285 284 284 284 284 285 284 283 283 282 283 283 283 282 282 281 280 280
287 289 295 295 293 293 292 292 291 283 282 288 290 282 282 288 290 292 293 291 293 294 295 296 297 297 298 298 298 298 300 298 297 296 294 293 293 292 291 291 291 291 292 292 292 292 292 292 292 292 292 291 291 291 291 291 290 290 289 288 287 286 285 286 287 287 287 287 288 288 287 288 288 287 286 286 286 285 285 284 284 284 283 283 284 283 282 282 283 282 283 283 282 284 282 279 279
287 291 292 294 293 291 292 292 290 287 290 292 290 287 282 284 289 293 293 291 291 293 294 295 296 296 296 297 298 297 299 298 298 296 295 294 293 292 292 292 291 292 292 292 291 292 291 291 292 292 291 291 291 291 291 291 290 289 288 287 287 286 286 286 287 287 288 288 287 287 287 287 287 287 286 286 286 285 284 284 284 283 283 283 283 282 282 282 283 283 283 283 282 282 281 280 279
290 291 294 292 294 292 292 290 287 286 284 281 284 289 282 283 286 293 293 290 291 292 293 294 296 297 296 297 298 298 299 299 299 296 294 293 293 293 293 292 292 291 292 291 291 291 291 291 291 291 291 291 291 291 291 290 290 289 288 287 286 287 287 288 288 288 288 287 286 286 286 286 286 286 286 285 285 285 285 283 283 282 282 282 282 283 282 282 282 281 281 281 281 281 281 281 280
293 293 293 293 292 291 291 286 285 283 281 280 283 288 281 283 287 287 290 291 291 292 294 295 296 297 296 297 297 298 299 298 298 297 295 294 294 293 293 293 292 292 292 292 291 291 291 291 291 291 290 291 291 290 291 290 289 289 288 287 286 287 288 288 287 286 286 286 285 285 285 285 285 285 285 285 284 284 283 283 282 282 282 282 283 281 281 281 281 281 281 281 281 281 281 281 280
294 293 292 290 289 286 285 285 283 281 279 282 285 288 285 281 286 287 287 289 292 292 293 295 296 296 297 297 299 299 299 298 297 296 295 294 294 293 293 292 292 291 291 291 290 290 290 291 290 290 290 290 290 290 290 289 289 289 288 287 287 288 288 287 286 285 285 285 285 285 285 284 284 284 284 284 284 284 283 283 282 282 282 282 282 281 280 281 281 281 281 281 280 280 280 280 281
293 288 286 286 284 283 282 282 283 277 279 282 285 287 287 279 281 289 292 294 294 294 293 294 295 296 297 297 300 299 298 298 296 295 294 294 293 292 292 291 291 290 290 290 290 290 290 290 290 290 290 290 290 290 290 289 289 288 288 288 288 288 288 287 286 285 285 285 285 284 284 284 283 284 283 283 283 283 283 282 282 281 281 281 280 281 281 281 281 280 280 280 279 280 280 280 279
291 286 285 281 279 281 278 279 275 275 278 282 284 287 283 284 288 290 291 291 293 294 295 295 295 296 296 298 300 299 297 296 295 294 292 292 292 292 291 291 290 290 290 290 290 290 290 290 290 289 289 290 290 290 289 289 288 288 288 288 288 288 288 287 286 286 285 285 285 284 284 283 282 282 282 282 282 282 282 281 281 280 280 281 281 280 280 280 280 280 279 279 279 278 279 279 277
287 285 282 280 276 275 275 276 279 280 283 284 283 287 284 287 289 294 293 293 295 295 295 295 295 295 295 299 299 297 295 295 294 293 292 292 291 291 291 291 290 290 289 289 289 289 289 290 289 289 289 290 289 289 289 288 288 288 288 288 288 288 287 287 286 286 285 285 285 284 284 283 282 282 282 281 282 282 281 281 281 280 280 279 279 279 279 279 279 278 278 278 278 278 278 278 277
287 288 287 284 282 278 273 276 276 278 281 281 283 280 278 278 283 294 296 298 295 296 296 294 295 294 294 297 297 294 291 289 292 292 291 291 292 291 290 290 290 289 289 289 289 289 289 289 289 289 289 289 289 289 289 288 288 288 288 288 288 288 287 287 286 286 286 285 285 284 283 283 282 282 282 281 282 281 280 280 279 279 279 279 279 279 280 278 278 278 278 277 278 277 277 278 277
286 288 290 283 283 285 281 283 282 279 279 280 279 279 280 285 291 292 296 296 296 295 295 295 294 295 295 293 295 294 291 291 291 291 290 289 290 290 289 289 289 289 289 288 289 289 289 289 289 289 289 289 289 288 288 288 288 287 287 287 287 287 287 287 286 286 285 285 284 284 283 282 281 281 281 281 280 280 279 279 279 278 278 278 278 278 277 277 277 276 276 276 276 279 277 277 277
285 287 282 286 291 287 282 283 284 281 279 280 284 283 286 290 293 294 293 292 293 294 294 295 294 294 292 291 291 290 290 290 290 290 290 289 288 288 289 289 289 288 288 288 289 289 289 289 289 288 288 288 288 288 288 288 287 287 287 287 287 287 286 286 285 285 284 284 283 282 282 281 281 280 280 280 279 279 279 278 278 278 278 277 277 277 276 276 276 276 276 275 275 276 276 276 276
286 280 285 291 291 289 283 277 281 278 276 280 284 281 283 283 282 287 291 291 292 292 293 295 294 293 290 293 290 290 290 290 289 289 288 289 290 290 289 289 289 288 288 288 289 289 289 289 288 288 288 287 288 288 287 287 287 286 286 286 286 286 286 285 285 284 284 283 281 281 281 280 279 280 280 280 279 278 278 279 277 276 276 276 276 276 276 275 275 275 275 275 275 275 275 276 276
286 284 289 284 280 278 283 281 274 274 275 277 281 283 283 285 285 287 286 289 290 292 294 293 292 290 290 290 290 289 288 287 289 289 289 289 289 289 289 289 289 288 288 288 288 288 288 288 287 287 287 287 287 288 287 287 287 286 286 286 285 285 285 284 284 283 282 282 281 280 279 279 279 279 279 278 277 277 277 276 276 276 276 276 275 275 275 275 275 275 275 275 275 275 275 275 275
289 289 285 289 282 280 279 280 281 279 277 277 278 281 280 288 286 288 288 290 291 293 292 290 292 292 291 291 291 290 289 290 289 289 289 289 289 289 289 289 288 288 287 287 287 287 287 287 287 287 286 286 286 286 286 286 286 285 285 285 284 284 284 283 282 282 281 281 280 279 279 278 278 278 277 277 276 276 276 276 276 275 275 275 275 275 275 274 274 274 274 274 274 274 274 274 274
282 283 280 284 282 284 282 282 280 279 276 277 276 277 282 287 290 289 289 291 292 292 291 291 291 291 291 290 291 291 290 291 290 290 289 289 289 288 288 288 288 287 286 285 286 286 287 286 286 286 286 286 286 286 285 285 285 285 284 284 284 283 282 282 281 281 280 280 279 279 278 278 278 277 277 276 276 276 275 275 275 275 275 274 274 274 274 274 273 273 273 273 273 273 273 273 274
287 286 285 286 283 280 278 279 284 281 279 276 276 276 284 291 293 291 291 293 293 292 291 292 290 290 290 290 289 290 291 290 291 291 290 289 289 288 287 286 284 284 285 285 286 285 285 285 286 286 285 285 285 285 285 285 285 284 284 283 283 282 282 281 280 280 279 279 279 278 278 277 277 276 276 276 275 275 275 275 274 274 274 274 274 273 273 273 273 272 272 273 273 273 273 272 272
Wind_Speed
6 5 6 5 4 3 3 2 1 2 1 6 4 3 2 3 3 3 1 4 0 2 4 2 3 2 2 2 4 2 5 2 1 1 2 1 3 5 2 2 3 4 4 4 7 8 7 8 10 10 9 9 9 9 9 11 10 10 10 9 11 11 11 11 11 12 12 12 14 14 14 14 15 15 14 16 16 16 15 15 15 15 15 15 14 14 13 13 13 12 11 12 13 14 14 13 12
6 5 4 2 3 2 1 2 1 3 3 4 7 2 3 4 1 2 4 2 2 3 3 4 1 4 5 5 4 6 6 6 4 4 3 5 5 4 2 2 4 5 3 4 8 8 6 5 10 10 9 10 9 9 9 10 9 9 10 11 11 10 10 11 11 11 13 12 11 13 13 14 14 15 14 14 15 15 14 15 14 14 14 14 15 16 16 15 15 14 14 14 16 16 15 14 15
6 5 3 3 3 2 3 1 2 3 3 4 2 3 3 3 3 2 2 6 6 5 6 5 2 3 1 1 2 0 0 4 9 6 4 8 8 4 4 2 3 4 4 6 8 7 5 5 9 10 10 9 9 9 9 10 9 10 11 11 10 9 9 9 10 9 10 11 12 13 14 14 13 12 13 13 13 14 14 13 13 13 13 14 14 15 16 17 17 17 17 17 17 16 15 15 15
5 6 3 2 2 2 2 2 2 4 4 6 3 1 2 4 5 9 7 5 5 5 2 1 1 0 1 3 1 1 4 3 4 7 5 7 1 8 6 4 6 4 3 6 8 6 4 6 10 11 10 10 9 10 10 11 10 11 12 12 10 9 8 8 9 10 10 10 11 12 13 13 13 13 13 12 13 13 13 13 13 13 13 14 14 14 15 16 16 16 16 16 16 15 15 14 14
3 4 2 3 2 2 1 2 3 3 6 3 1 0 2 2 9 7 5 4 3 3 2 2 1 0 1 1 1 0 1 4 4 6 3 3 5 6 6 5 5 5 4 8 8 6 5 9 10 10 11 10 11 11 11 11 11 11 12 12 12 10 10 11 10 11 12 12 12 12 12 12 13 13 13 13 13 13 13 13 13 13 13 13 14 14 14 14 15 14 14 14 14 13 13 13 13
4 4 3 1 1 1 1 2 3 6 9 4 2 3 1 1 9 8 5 4 4 4 4 3 1 2 1 1 2 2 1 2 4 4 5 4 7 7 5 4 6 5 6 8 7 5 4 9 11 10 11 11 11 11 11 11 11 11 11 11 11 11 11 11 11 11 11 12 12 12 12 12 12 13 13 13 13 13 13 13 14 14 14 13 13 13 13 13 13 14 13 14 13 13 12 12 12
2 2 1 1 3 1 2 3 6 6 1 3 2 3 3 5 9 9 5 4 2 3 1 1 3 0 1 1 3 3 2 1 5 1 4 7 7 6 6 4 5 6 7 8 7 6 5 9 10 11 11 11 11 11 11 11 11 11 11 12 11 11 11 11 11 11 12 12 12 12 12 13 13 13 13 13 13 13 13 13 13 13 13 13 13 13 13 13 12 12 13 12 12 12 12 12 12
2 0 1 2 2 2 3 4 7 7 1 2 1 4 3 7 8 6 5 3 4 2 3 1 1 1 1 4 2 1 4 6 7 9 12 8 7 5 5 5 6 5 7 8 7 5 6 10 10 11 11 11 11 11 11 11 11 11 12 12 11 11 11 12 12 12 12 12 12 13 13 13 13 13 14 14 14 14 14 14 14 14 14 14 14 14 14 14 14 13 13 13 12 12 12 11 11
2 1 1 1 2 3 3 6 7 7 2 2 4 4 3 6 4 5 6 1 4 2 7 5 3 4 1 2 0 3 4 5 8 9 9 9 7 5 4 6 6 6 7 8 7 5 3 8 11 11 11 11 11 11 12 12 12 11 11 12 12 12 12 12 12 12 12 12 13 13 13 13 14 14 14 15 15 15 14 14 14 14 14 14 14 15 14 14 14 14 14 14 14 13 13 12 12
1 1 1 1 2 4 4 6 7 3 1 3 4 3 2 3 3 4 6 5 5 4 6 6 5 4 4 2 2 2 4 6 8 8 8 8 7 5 4 6 7 7 6 7 7 5 4 8 11 11 11 11 11 11 12 12 12 12 12 12 13 13 12 12 12 12 12 13 13 13 14 14 14 14 15 15 15 15 15 15 14 14 14 14 14 14 14 14 14 14 14 14 13 13 13 14 13
2 2 1 1 3 4 5 6 2 0 3 1 2 3 3 2 2 3 3 4 6 4 5 8 3 7 3 3 1 3 9 8 9 10 9 8 6 5 5 6 6 6 7 7 7 6 5 4 11 12 11 11 11 11 11 11 12 12 12 12 12 13 13 13 13 13 13 13 13 13 14 14 14 14 14 15 15 15 15 15 15 14 14 14 14 14 14 14 14 14 14 14 14 14 14 14 14
2 2 2 2 4 4 5 4 7 2 3 3 2 5 2 3 1 3 4 4 5 5 5 9 1 5 5 4 2 3 8 8 7 8 9 7 6 7 6 5 5 7 6 7 8 7 7 5 5 9 11 12 12 12 11 11 12 12 12 12 12 12 13 13 13 13 13 13 13 13 13 14 14 15 15 15 15 15 15 15 15 15 15 15 15 15 15 15 15 15 15 15 14 14 14 14 14
2 3 2 3 3 4 6 6 4 5 4 4 5 4 4 3 4 3 3 4 4 5 5 9 3 0 2 4 2 5 8 8 7 8 9 7 6 6 6 6 6 7 6 6 6 8 7 7 6 5 8 13 12 11 11 11 11 11 11 11 11 12 12 13 13 12 12 12 12 13 13 13 14 14 15 16 15 15 15 15 15 15 15 15 15 15 15 16 16 16 16 17 17 17 17 15 14
2 2 3 3 4 5 5 4 4 4 2 3 5 5 2 2 3 3 2 4 5 5 1 13 1 1 4 3 1 5 6 8 10 8 7 6 6 5 5 5 6 5 5 5 5 5 7 7 7 6 7 6 6 8 9 11 11 11 12 12 12 12 12 13 12 12 11 11 10 11 12 13 12 13 14 15 16 15 14 14 14 15 15 15 15 15 15 16 16 16 16 16 17 17 17 16 15
2 3 1 2 4 4 5 6 3 2 3 2 1 2 1 3 0 2 4 4 2 2 0 3 3 4 2 5 2 5 9 10 11 8 6 7 6 5 6 5 5 5 5 5 5 6 5 7 8 7 6 7 7 6 4 5 10 11 11 12 12 12 12 12 12 11 10 10 8 9 9 11 11 10 11 11 12 13 12 11 11 12 12 13 12 12 12 14 14 13 14 15 15 15 16 16 14
1 3 1 2 4 3 3 0 1 0 2 2 2 1 1 1 2 0 0 2 1 2 1 2 3 2 0 1 1 6 13 12 10 8 7 7 5 5 5 4 4 4 4 4 5 4 5 5 5 5 5 5 6 7 5 4 7 10 10 11 11 11 11 11 10 9 7 4 4 3 6 7 8 5 7 5 7 8 8 5 8 9 10 12 11 10 11 13 13 12 13 15 14 13 15 14 13
0 0 2 3 6 5 4 3 1 3 1 2 2 2 3 3 2 0 2 2 1 3 2 2 4 1 1 2 3 12 11 11 10 9 7 6 6 5 4 5 5 4 3 4 4 4 5 5 6 6 5 5 6 7 6 4 6 10 7 10 10 10 9 8 8 7 6 3 3 6 3 3 5 4 3 1 5 4 5 3 6 8 10 12 11 10 11 13 12 12 13 15 14 15 15 14 11
1 2 2 5 6 8 3 3 1 1 1 3 3 3 2 3 1 1 1 3 3 3 4 3 3 2 5 4 6 10 11 12 10 12 8 7 6 6 6 5 6 6 6 5 4 5 5 5 5 6 6 5 6 6 5 5 5 7 6 5 4 5 6 6 3 3 4 0 1 3 3 2 5 3 2 2 1 1 3 2 6 11 11 13 13 12 14 14 13 14 14 15 14 15 13 7 6
3 2 3 6 4 3 1 2 4 3 3 2 3 4 2 3 6 2 1 3 5 5 8 5 5 4 7 5 8 11 11 11 11 10 12 11 10 10 8 7 7 6 7 6 6 7 6 6 5 6 6 5 6 5 5 6 6 4 5 5 4 6 3 3 4 4 3 0 1 3 3 1 2 3 1 1 0 1 3 5 10 13 12 14 14 14 16 15 15 15 15 15 15 12 6 6 6
4 2 4 6 3 5 5 3 2 2 3 3 4 3 4 3 1 3 2 4 4 10 7 6 9 10 9 8 9 11 11 11 11 11 12 11 11 10 10 9 9 8 8 8 7 6 7 6 6 6 7 6 6 5 5 6 5 6 6 6 6 5 5 4 4 4 3 1 1 4 3 0 2 3 3 5 5 5 6 7 9 11 11 11 14 7 11 12 15 13 14 14 8 5 6 6 6
3 4 5 4 1 3 3 4 3 3 4 3 4 1 0 2 2 3 3 4 9 9 8 10 12 14 11 13 12 11 12 11 11 11 11 11 10 8 9 10 10 9 8 7 7 7 8 8 7 7 7 6 6 6 5 6 5 5 5 5 5 5 4 5 5 4 2 2 2 4 2 0 3 4 4 4 5 6 5 4 5 5 5 5 7 5 6 5 6 6 5 6 6 6 7 7 7
2 6 6 6 9 5 2 3 6 2 2 1 3 5 4 2 4 5 5 8 9 5 6 7 12 12 11 14 14 12 13 13 14 13 13 14 14 13 9 7 7 7 8 9 9 8 9 8 8 7 7 6 5 6 5 5 6 5 5 4 4 4 3 4 5 5 4 1 2 0 2 2 4 5 4 4 4 5 4 5 4 4 4 4 4 5 6 6 6 6 6 6 6 6 6 6 7
4 5 8 11 10 7 0 0 1 1 1 3 2 3 3 2 3 4 7 13 11 3 1 1 5 3 5 17 14 12 13 14 15 16 15 14 13 12 11 9 10 10 9 9 8 8 9 8 8 8 8 7 6 6 5 6 4 5 5 5 5 5 4 3 4 5 4 1 0 1 3 3 4 4 4 4 4 4 4 3 4 5 4 5 6 5 5 6 6 6 6 6 6 6 6 6 6
4 6 5 10 8 7 5 2 5 2 3 4 2 3 2 3 8 4 11 14 14 9 4 1 2 4 9 12 13 16 16 16 16 16 16 17 16 16 13 11 9 7 7 8 9 9 10 10 10 9 8 7 6 6 6 6 4 5 5 4 3 5 4 3 4 6 4 3 3 3 2 4 5 5 3 4 4 3 4 4 4 5 4 5 5 4 5 6 6 6 5 5 6 6 6 7 6
4 7 5 6 1 3 4 2 4 4 5 4 3 4 9 6 7 4 17 12 9 9 9 4 4 5 7 11 12 12 12 12 13 12 10 9 9 9 8 7 7 9 10 10 9 10 11 10 11 11 9 8 7 6 6 6 6 5 6 5 3 4 2 4 6 4 5 5 3 3 3 4 5 4 3 3 3 3 3 3 4 3 3 5 5 4 5 5 5 6 5 5 5 5 6 6 6
4 7 4 6 7 5 5 5 5 5 3 4 4 10 9 8 7 13 22 14 11 7 6 6 5 5 7 9 12 12 13 14 12 12 14 10 8 10 11 10 9 11 11 10 10 9 10 10 11 11 10 9 8 6 6 7 6 6 6 5 6 3 3 6 4 4 6 6 4 3 3 4 4 4 3 3 4 3 4 3 3 3 4 4 6 5 5 4 5 5 4 4 4 5 6 6 6
2 4 5 6 9 9 6 8 7 6 6 5 8 9 8 5 6 12 8 13 10 11 12 10 7 8 8 7 9 11 12 14 15 11 7 8 10 12 12 11 11 11 10 11 10 9 10 10 10 10 9 8 8 8 6 7 7 7 6 6 6 4 5 5 3 4 5 6 5 3 2 3 4 4 4 3 3 3 5 3 2 3 3 5 4 3 3 3 4 4 4 4 5 6 6 6 6
5 4 6 10 11 12 12 10 11 5 6 8 6 8 5 2 2 17 14 2 3 8 10 10 10 9 8 9 9 8 11 11 10 9 14 13 13 13 13 14 14 10 12 12 10 8 11 11 11 10 10 9 9 8 6 7 7 7 6 7 6 5 6 5 4 6 5 5 4 3 3 2 4 3 3 2 1 3 4 1 2 2 3 5 4 3 4 4 4 4 4 4 4 4 6 6 6
3 3 6 11 10 12 11 11 12 8 6 7 5 3 9 8 11 19 19 5 3 4 6 7 10 10 8 8 9 8 11 9 9 11 14 15 13 11 14 14 13 12 7 10 10 10 12 11 11 10 10 9 10 9 8 7 7 7 7 6 6 6 6 5 6 6 6 5 4 4 3 3 3 4 4 2 1 3 3 2 3 2 5 5 3 3 3 3 4 4 4 4 5 4 5 5 4
3 4 5 13 9 10 15 12 10 10 3 8 7 4 8 11 21 18 18 8 8 6 7 7 6 7 7 7 9 10 9 8 11 15 14 13 12 13 14 13 13 12 8 8 10 12 10 8 8 8 10 10 10 8 8 7 7 7 6 7 6 6 5 5 6 6 6 6 5 4 3 3 4 3 3 2 2 3 1 3 3 4 5 3 2 2 3 3 3 3 3 4 4 5 5 5 6
3 5 5 6 5 7 7 6 8 10 4 11 4 6 8 13 7 17 14 8 9 10 9 7 7 8 8 9 9 11 12 13 16 16 14 13 12 11 13 10 12 11 8 9 13 12 11 10 9 8 10 10 9 8 9 7 7 7 7 7 7 6 5 5 6 6 7 6 6 5 4 4 4 3 2 2 2 2 2 3 3 5 3 1 1 2 2 3 3 3 4 4 4 4 5 5 5
4 2 5 4 7 9 5 3 14 12 2 6 5 6 13 9 17 5 11 8 9 9 8 9 9 9 10 10 11 11 12 13 14 12 13 14 13 11 12 13 13 13 13 12 11 12 12 11 10 9 10 11 9 9 8 8 8 7 7 7 7 5 6 6 7 6 6 7 6 5 4 4 4 4 3 1 3 2 2 3 3 3 3 1 2 2 2 3 4 3 3 3 5 4 5 5 4
6 8 6 7 6 9 7 5 6 4 5 5 12 8 2 6 6 2 4 7 8 9 8 9 11 12 12 11 11 11 10 10 9 11 11 11 10 8 10 11 12 14 12 12 13 12 12 12 12 12 13 13 10 9 9 8 8 7 7 7 7 5 6 7 7 6 7 7 7 6 6 5 4 4 4 1 3 3 3 2 3 3 2 2 2 2 2 3 3 3 3 3 4 6 5 5 5
6 6 8 7 8 6 6 2 3 5 8 6 11 8 13 8 3 2 2 5 8 8 9 9 9 9 11 11 9 11 11 11 13 13 13 11 10 9 9 11 11 12 11 12 13 14 14 12 11 11 10 11 9 9 9 8 8 7 7 7 6 6 5 6 7 7 7 7 7 7 6 6 5 4 4 3 3 3 3 3 2 3 3 2 2 2 2 3 3 3 4 3 4 4 5 5 7
4 3 5 6 6 8 9 5 3 5 6 5 6 12 16 12 8 10 7 6 8 10 9 11 13 12 14 13 11 9 11 13 15 11 12 11 10 9 9 10 10 11 10 12 12 12 10 10 9 11 11 11 9 9 8 8 8 6 6 6 6 5 4 6 6 7 7 6 6 7 6 6 6 5 4 4 3 3 3 3 3 3 2 1 1 1 2 3 3 3 4 5 3 4 5 5 7
10 10 9 7 8 8 11 8 2 11 7 8 10 12 15 14 12 12 15 13 12 13 11 13 14 13 14 14 10 9 10 14 10 9 11 11 10 10 8 9 8 9 10 11 12 11 11 11 9 9 10 11 9 9 8 7 7 7 8 6 6 5 5 5 6 7 6 7 6 7 6 5 6 5 4 4 3 3 3 3 3 1 0 0 0 1 2 2 3 4 4 4 6 5 3 5 5
12 9 8 11 9 11 14 11 5 8 3 10 13 14 14 15 12 9 12 11 12 12 10 11 11 13 14 13 9 11 12 11 8 11 12 12 11 10 8 8 8 9 9 11 12 12 12 14 12 13 11 11 11 11 10 10 10 8 6 8 8 7 7 6 6 5 6 7 7 6 6 5 6 5 4 4 4 5 3 3 2 1 1 0 0 0 1 3 3 3 4 3 4 6 5 4 5
13 10 8 10 6 14 13 10 4 5 6 5 9 9 13 15 11 10 10 11 15 15 14 14 17 16 16 13 12 11 9 2 7 6 8 8 8 8 8 8 9 12 9 11 13 14 12 13 14 12 11 11 11 11 10 10 9 10 10 10 8 8 8 8 7 6 7 6 7 6 6 4 6 5 5 4 4 4 4 3 2 2 1 0 0 0 1 1 2 3 3 3 1 4 5 5 8
7 6 6 7 12 13 11 11 4 1 4 8 8 11 14 15 12 11 12 14 14 12 14 18 16 17 15 11 10 6 4 5 7 8 8 9 9 10 9 9 9 12 12 13 13 13 12 13 12 12 11 12 11 11 11 10 9 8 8 7 9 6 4 6 6 6 5 7 6 6 6 5 6 5 5 5 4 4 4 4 3 3 1 1 0 1 1 2 2 3 3 3 5 2 3 4 5
6 6 4 11 11 6 10 1 1 3 5 2 4 8 10 13 15 18 19 19 17 17 17 19 17 16 15 16 11 6 7 9 11 11 11 10 10 10 9 9 10 10 11 10 12 15 12 12 12 13 12 11 11 11 11 9 9 7 7 8 7 8 7 6 5 6 6 7 6 6 5 6 6 6 6 5 4 4 4 4 3 2 2 1 1 1 1 2 3 3 2 2 2 6 3 2 2
7 9 8 11 11 11 10 6 4 4 7 7 5 10 10 12 16 12 14 16 16 15 11 14 16 14 14 11 6 6 8 10 9 8 9 10 11 13 13 12 10 12 13 13 13 14 11 14 14 14 13 13 11 12 12 10 9 8 7 8 7 8 6 6 7 5 6 6 7 7 7 6 6 6 6 6 5 5 5 4 4 3 2 1 0 1 3 3 3 2 2 3 3 3 5 3 3
8 7 12 16 14 13 11 10 7 4 5 4 1 9 8 8 15 16 10 4 8 9 9 15 15 13 15 10 11 6 6 10 14 14 14 14 12 9 8 10 12 12 13 13 12 13 11 12 12 13 11 11 11 12 13 11 11 12 11 11 10 7 8 9 10 12 10 9 9 7 7 7 7 6 6 6 5 5 5 4 3 3 3 2 2 3 2 2 2 3 3 3 3 3 3 4 4
9 6 10 16 13 9 9 9 3 4 6 1 0 0 17 6 7 6 1 5 8 6 10 15 13 11 12 13 10 6 10 9 7 8 9 11 11 11 12 13 14 14 13 10 10 11 11 12 12 13 12 11 11 11 12 11 11 11 13 14 13 14 13 8 7 6 8 7 7 9 8 7 7 7 6 6 6 5 4 4 4 4 3 2 1 2 3 3 3 3 3 3 3 2 2 4 4
11 1 0 0 2 5 4 3 6 7 2 2 3 3 11 21 10 7 10 7 7 8 11 12 13 13 10 11 12 5 9 10 12 12 13 13 14 16 17 16 14 15 11 10 10 11 13 13 13 13 11 11 10 11 13 12 13 12 11 10 9 9 10 10 10 9 9 9 9 9 8 7 7 7 7 6 6 5 5 4 4 3 3 2 2 3 3 3 3 3 3 2 3 3 3 4 5
2 1 2 1 0 0 1 2 4 3 4 7 6 6 4 14 1 12 13 8 9 12 10 11 15 15 9 10 12 9 11 13 12 11 13 14 15 14 12 12 12 9 11 13 13 12 11 11 12 12 12 11 11 13 13 12 11 12 12 10 10 8 8 8 8 8 9 9 10 8 8 8 7 7 7 7 6 6 5 5 4 4 3 3 3 3 3 3 3 3 3 3 3 4 3 3 3
1 1 4 2 1 1 0 1 2 3 2 12 7 10 6 24 3 2 7 12 13 12 13 15 16 14 12 8 9 9 9 8 8 11 12 12 12 12 11 9 9 12 11 9 9 10 11 11 13 14 13 12 11 12 12 12 11 10 11 11 11 9 8 7 9 9 9 9 10 9 8 8 8 7 7 7 6 6 6 5 4 4 4 4 3 4 4 3 3 4 4 4 4 4 3 3 5
3 1 1 2 0 2 0 0 1 3 10 15 9 12 11 17 4 10 9 7 11 10 7 10 12 11 10 7 8 9 9 9 8 8 8 10 9 10 10 12 12 9 9 11 11 12 11 12 13 15 14 11 11 13 13 14 12 11 12 12 13 12 11 11 10 10 9 8 9 9 9 8 8 8 7 7 7 6 6 5 5 4 4 4 3 4 4 4 4 5 4 3 2 3 3 4 5
2 1 1 1 4 2 1 1 1 2 17 3 14 15 15 14 2 3 11 11 13 13 13 14 13 12 11 8 7 9 9 8 8 8 8 9 9 9 10 11 12 12 10 12 12 11 12 12 13 14 13 13 12 13 14 14 13 13 11 12 14 13 13 12 13 13 13 12 11 10 8 7 7 7 8 7 7 7 6 6 5 4 4 4 5 4 4 5 4 2 1 1 2 3 3 4 4
3 4 2 3 4 2 2 3 2 6 14 1 8 12 4 22 14 0 5 3 8 10 10 12 13 12 9 7 8 8 8 8 10 9 9 9 12 13 13 12 11 12 15 15 14 13 13 13 15 16 16 15 14 14 15 15 14 13 13 12 12 11 12 11 11 12 11 11 10 10 10 9 8 8 8 8 8 8 7 7 6 6 5 5 5 4 3 1 0 1 1 2 3 4 4 5 6
7 7 7 5 4 4 7 4 5 7 7 5 4 10 14 10 5 12 12 9 10 11 10 10 10 9 7 7 7 7 8 9 9 10 10 12 12 12 13 13 14 13 13 14 13 13 13 13 15 17 17 15 13 14 15 15 16 14 12 12 11 11 11 11 10 10 10 9 9 11 11 10 10 9 9 8 8 8 7 6 6 5 4 3 2 2 2 1 1 2 2 3 4 4 4 5 5
14 5 9 11 8 2 2 4 9 9 9 1 1 4 7 2 6 13 19 17 11 11 11 9 7 7 6 4 6 6 6 6 7 9 11 12 13 13 14 14 13 13 14 14 13 14 13 13 15 17 15 16 16 16 15 16 14 14 12 11 11 10 11 10 9 9 10 10 8 9 8 8 8 8 9 8 8 8 7 6 5 4 3 3 3 3 2 2 2 2 2 3 3 3 4 5 5
4 3 2 2 9 2 10 10 9 6 6 8 5 7 2 6 1 7 10 11 11 10 12 9 9 6 4 5 6 7 7 7 7 9 9 8 9 10 9 11 12 12 14 13 14 14 15 16 17 18 20 19 18 16 16 16 15 13 13 14 13 12 10 9 8 7 8 8 9 9 8 8 7 8 7 8 7 7 7 6 4 4 4 4 3 3 3 3 2 1 2 3 4 3 4 5 5
2 8 7 10 1 6 5 6 7 2 3 18 4 8 10 5 16 17 11 7 9 9 11 12 11 8 6 6 6 6 7 8 9 11 11 10 7 8 11 12 11 11 12 16 18 18 19 17 16 17 16 14 16 17 16 14 14 13 15 14 13 12 12 12 12 11 10 8 8 8 8 7 7 7 7 7 8 6 6 6 5 5 4 4 4 3 3 3 2 2 3 3 5 4 5 6 6
7 2 6 1 2 2 2 3 0 3 7 12 7 13 15 8 16 1 12 12 11 10 13 16 14 10 7 7 7 8 10 11 8 7 7 10 11 12 11 10 11 15 16 16 17 16 15 15 16 17 16 18 17 16 16 15 16 16 14 15 14 14 12 11 10 11 10 9 8 8 7 8 8 7 7 7 7 7 6 6 5 4 4 3 3 3 3 3 3 3 3 4 4 4 5 5 6
3 3 4 2 3 2 3 1 4 6 9 7 10 17 15 15 18 8 1 12 13 13 17 17 12 9 7 7 9 8 5 4 7 10 10 10 12 13 14 15 14 11 12 13 14 13 12 12 13 14 18 19 17 14 13 12 14 12 12 14 14 12 11 10 9 10 9 10 10 9 9 9 8 8 8 8 7 7 6 5 5 4 4 4 4 3 3 3 3 3 4 5 4 4 5 6 6
3 2 4 0 1 3 4 6 2 3 12 6 15 15 17 10 5 6 8 13 14 17 17 10 10 10 9 8 9 9 7 9 11 10 11 12 14 14 15 15 15 17 15 13 12 10 13 14 13 13 10 9 11 14 14 15 15 13 12 11 11 11 10 11 11 12 11 11 10 10 9 9 9 8 8 8 7 7 6 6 5 5 5 4 4 3 3 3 3 4 4 4 4 4 5 6 6
3 1 4 1 2 2 2 4 5 6 7 8 9 13 19 5 2 4 6 11 11 13 11 7 8 9 9 8 10 9 8 10 10 10 11 13 13 12 12 11 11 8 6 6 9 14 14 11 12 13 16 16 16 15 14 14 12 13 13 15 14 12 12 10 10 11 11 10 10 9 9 8 8 8 8 8 7 7 6 6 5 5 5 4 4 3 3 3 3 3 3 3 3 4 6 7 6
11 14 14 15 9 4 5 13 3 5 6 6 8 15 16 10 2 4 8 11 12 9 8 8 7 8 7 8 8 9 8 8 9 10 11 11 11 11 9 7 5 5 8 10 11 9 10 14 15 13 13 13 16 14 16 15 13 13 14 13 13 11 11 10 11 10 11 10 10 9 9 9 9 7 8 8 7 6 6 6 5 5 4 4 3 3 3 2 3 3 3 3 5 5 6 7 5
Wind_Direction
283 242 242 237 253 257 310 224 316 200 214 245 259 219 109 80 127 115 134 69 291 97 77 133 30 22 24 25 3 357 52 66 33 233 213 150 122 97 87 81 88 93 91 94 97 80 64 60 77 75 79 77 76 77 77 71 67 67 65 72 64 65 62 66 66 67 68 65 61 62 60 60 58 54 52 52 54 54 51 47 42 40 36 33 34 37 37 34 40 37 44 52 51 46 36 30 30
263 249 246 257 266 329 253 172 244 277 208 269 250 108 143 100 133 152 129 172 25 75 70 46 21 53 75 354 327 8 66 44 42 116 76 120 137 104 110 4 96 94 97 91 85 83 68 50 76 83 85 84 84 83 83 80 77 77 77 72 73 70 71 70 67 64 65 64 68 67 66 62 61 58 55 54 53 54 51 48 45 41 38 33 34 42 41 41 39 40 44 49 52 43 37 30 27
305 296 267 212 262 235 311 304 265 291 283 261 27 59 127 96 141 113 71 93 97 84 70 65 29 44 328 287 296 218 338 113 91 90 104 147 138 153 123 130 93 86 66 80 78 81 72 63 76 86 87 89 88 86 86 86 83 81 76 78 80 77 76 74 71 73 76 75 72 70 70 69 67 66 65 61 60 59 58 54 48 44 43 38 34 37 41 41 39 37 38 40 48 44 37 34 29
280 286 306 292 288 152 280 188 241 267 290 284 102 163 182 137 97 90 88 81 80 108 105 95 100 342 1 200 244 22 111 95 90 127 124 180 93 140 149 158 139 111 103 90 86 75 70 72 85 85 89 89 90 90 89 84 88 81 79 79 78 78 75 76 75 74 75 75 73 71 70 69 68 69 67 65 63 61 59 57 54 47 43 41 39 38 38 41 42 38 39 38 41 39 35 33 31
282 265 223 310 292 223 284 231 260 252 256 282 111 100 111 116 106 102 82 90 92 95 134 93 63 54 67 20 355 329 121 96 65 80 95 96 132 125 144 173 131 141 115 101 97 87 76 81 85 92 92 95 94 92 90 89 86 84 83 83 81 82 81 77 77 74 72 72 70 68 68 66 66 66 64 62 61 60 56 54 53 50 46 43 40 38 37 38 38 39 40 40 37 34 31 28 27
266 277 185 205 294 54 325 306 269 244 249 320 3 154 85 98 110 109 107 80 64 68 34 136 27 114 206 171 11 107 181 196 133 98 130 123 116 145 152 175 127 115 91 74 77 80 78 91 89 91 97 97 96 93 93 92 91 89 89 87 84 80 76 75 72 71 70 68 68 68 66 65 65 63 62 60 60 57 54 51 48 47 44 41 39 38 38 37 38 37 36 37 36 34 29 25 24
302 286 192 222 271 145 257 257 264 271 298 313 43 66 130 88 114 114 124 106 87 87 5 164 116 28 244 81 77 55 76 5 144 70 106 142 136 143 163 131 105 110 109 100 91 78 73 90 100 100 98 98 96 97 96 93 92 91 90 88 86 82 80 79 76 74 72 70 68 66 64 64 63 62 60 59 58 55 52 48 45 42 39 37 35 31 28 29 32 33 32 29 29 26 24 19 18
246 10 142 208 251 113 234 244 265 272 278 33 303 61 30 115 125 134 153 177 170 161 180 286 109 336 258 139 226 127 65 47 99 114 119 127 136 152 149 129 125 119 101 102 101 97 77 94 97 100 103 101 100 100 98 96 94 92 90 90 88 86 82 78 75 74 73 71 69 66 63 61 59 58 57 55 54 53 50 48 45 41 38 35 33 30 25 23 22 23 23 24 23 19 15 10 10
235 161 315 11 270 212 246 246 251 252 189 134 90 75 344 119 157 145 156 159 111 208 151 166 186 119 169 155 97 181 92 131 122 119 118 130 140 163 146 139 131 123 115 114 115 105 84 86 96 97 96 98 99 98 98 96 96 95 93 91 89 87 84 80 79 77 74 71 69 66 64 60 58 56 55 53 50 49 48 47 45 42 38 36 34 31 28 25 23 23 22 19 16 13 8 5 3
267 175 237 245 302 277 254 245 238 243 122 78 115 137 160 111 156 194 160 160 160 162 170 154 174 222 144 211 112 216 179 141 125 115 131 141 151 153 125 108 110 119 116 117 113 109 109 91 89 94 93 95 95 95 95 95 95 94 93 91 90 88 86 83 81 79 77 75 72 70 67 64 61 58 56 52 50 48 46 45 43 41 39 36 34 31 28 25 23 22 20 18 15 10 6 2 359
255 160 253 344 241 254 254 268 312 324 79 101 90 102 148 118 187 200 184 190 132 159 112 135 193 224 258 260 89 293 117 140 145 145 151 147 145 130 113 109 130 127 123 120 127 136 127 107 94 89 92 92 92 93 93 93 91 92 91 90 90 90 88 86 84 80 79 76 74 73 70 67 64 62 58 55 52 48 45 43 41 39 36 34 32 30 27 25 23 21 19 15 10 6 2 0 359
281 206 144 261 268 262 284 329 319 352 124 131 205 135 115 160 212 195 205 215 156 135 157 159 211 166 213 244 187 166 145 161 162 145 142 140 141 134 121 117 111 105 121 137 141 136 136 134 107 98 96 94 94 92 91 91 91 90 90 91 91 89 88 87 83 81 79 77 75 72 69 66 64 61 58 55 51 47 43 41 40 37 34 31 28 26 25 22 19 18 15 11 8 5 1 359 359
255 321 241 240 259 271 290 319 292 340 314 260 159 138 119 174 195 200 224 228 177 165 186 190 93 189 240 198 27 141 174 177 146 140 138 150 141 127 133 124 124 132 140 145 134 144 147 129 132 127 117 102 93 94 97 97 100 100 98 96 92 90 88 86 83 79 77 76 74 71 67 65 64 60 59 56 52 46 41 37 35 34 32 28 26 24 22 20 16 14 12 9 5 2 359 359 0
243 255 338 283 298 290 282 265 297 278 292 35 47 109 160 164 182 234 269 215 228 197 352 178 125 148 260 81 230 182 195 162 131 135 147 138 124 132 125 127 128 131 148 145 143 144 136 139 129 141 139 120 110 92 98 109 110 110 108 104 99 94 90 86 83 79 75 76 76 74 71 66 63 61 59 55 50 44 38 33 31 31 27 23 21 20 19 16 13 11 9 7 4 1 358 358 357
294 315 301 256 277 301 263 254 246 351 295 80 88 126 158 214 12 228 236 246 177 19 298 111 147 85 254 203 223 194 159 155 134 141 147 119 130 125 113 122 140 141 166 164 151 147 144 133 147 157 162 143 140 123 108 112 118 116 113 109 106 101 95 89 83 78 77 78 83 89 90 86 71 69 65 60 58 50 41 31 31 32 30 25 21 20 20 16 12 10 8 5 3 1 359 357 354
254 344 259 266 264 265 289 244 281 253 261 98 217 101 184 114 57 263 11 73 74 289 36 207 211 205 355 340 168 113 136 130 137 141 126 130 130 114 124 143 157 158 181 169 148 157 148 145 144 147 143 153 139 128 129 126 120 117 113 109 106 103 101 99 99 97 96 102 114 151 146 125 108 85 85 93 83 74 63 43 39 40 36 27 26 22 20 16 12 10 9 5 2 2 357 349 344
319 109 278 241 269 243 228 198 127 261 127 138 169 176 169 198 167 84 144 247 224 173 220 203 190 353 346 106 140 121 124 126 136 131 128 139 135 140 162 168 169 170 172 173 160 164 151 151 153 148 154 139 125 132 138 137 140 125 116 112 108 105 102 107 111 136 151 152 199 181 199 135 103 100 83 80 110 135 103 71 46 39 40 28 25 25 23 16 13 13 12 7 8 9 4 355 352
156 215 204 261 245 258 342 335 352 84 352 124 228 183 212 247 114 179 76 263 236 257 195 225 197 203 101 134 124 125 129 139 146 145 158 157 165 165 180 187 177 182 170 185 181 169 160 160 164 146 137 139 138 135 146 157 174 160 148 149 137 132 141 135 114 112 90 48 301 105 94 52 112 105 118 111 124 110 113 128 41 37 39 28 25 26 21 15 14 14 12 10 11 8 2 349 353
200 242 237 249 261 282 168 355 345 19 305 4 165 178 217 258 147 151 173 226 203 238 243 203 220 175 99 130 130 133 143 150 157 167 166 174 182 183 183 181 188 170 177 183 191 172 171 161 170 145 148 152 146 152 162 169 176 153 144 130 130 133 128 109 118 97 99 59 330 87 79 16 109 113 91 52 229 108 65 40 35 34 31 28 21 26 19 13 12 13 11 9 6 1 357 347 346
226 246 261 264 285 318 309 337 319 348 8 301 306 193 189 251 182 91 216 258 213 218 230 214 216 215 169 161 151 153 156 164 173 175 181 187 189 188 182 184 189 191 179 182 179 171 168 163 176 154 155 156 150 163 173 173 168 153 155 158 157 147 142 125 104 105 97 54 19 81 95 275 75 89 132 27 60 46 31 23 30 34 19 30 16 22 19 7 5 6 8 5 2 354 350 344 342
207 177 224 253 264 16 331 33 15 36 43 317 296 354 267 250 232 142 209 253 244 248 221 209 215 218 187 169 165 165 169 173 183 189 189 194 196 200 194 190 189 186 172 165 164 178 175 162 175 151 150 159 168 168 180 173 164 154 138 149 138 133 145 141 133 119 122 98 39 114 156 193 96 86 54 43 47 53 36 24 25 33 17 33 14 21 18 360 354 358 2 358 360 353 348 341 339
360 235 260 268 288 274 3 59 54 52 34 352 286 287 248 221 234 193 202 225 246 208 239 228 224 204 188 168 178 173 178 181 186 192 197 195 195 199 196 187 178 177 160 173 175 173 176 166 166 153 153 170 178 161 178 157 149 139 140 139 132 124 136 142 145 140 118 87 97 310 163 106 95 85 77 56 58 58 53 24 26 40 18 36 20 19 16 5 351 354 357 356 353 350 342 338 329
249 248 241 249 255 264 251 176 43 81 243 223 254 269 313 216 255 231 221 227 240 226 162 49 50 41 181 168 165 178 184 189 190 195 196 198 199 200 199 187 179 181 175 179 164 172 171 167 161 155 162 167 177 166 147 131 162 146 136 140 137 131 142 154 120 100 103 99 98 24 77 87 84 79 74 63 65 63 58 31 25 43 17 39 16 20 21 2 354 353 351 355 350 345 340 335 331
232 263 284 293 313 279 285 322 143 194 230 247 257 37 263 253 251 226 239 237 243 248 280 109 130 113 110 147 172 183 189 192 199 200 197 200 196 196 193 189 182 171 167 173 168 169 173 170 163 159 164 164 177 165 134 151 176 133 125 109 124 138 147 142 113 115 124 94 46 22 17 84 92 80 63 63 68 57 66 31 35 36 23 43 21 19 24 6 353 351 345 353 347 340 336 330 332
228 260 249 255 116 270 280 231 181 213 236 253 292 278 249 231 247 303 259 250 243 229 235 206 155 133 141 162 180 191 195 202 206 205 205 210 204 198 197 195 178 170 178 178 169 168 177 167 164 166 164 165 166 156 151 158 153 124 117 148 134 139 141 125 124 140 127 108 80 40 21 70 84 86 80 78 86 68 76 50 49 42 35 45 35 11 27 8 350 342 339 344 336 333 329 321 326
222 252 295 317 302 296 269 246 218 209 236 205 232 245 254 252 294 264 257 253 245 253 242 216 165 183 186 182 185 189 198 201 204 201 204 198 197 192 200 197 186 184 183 173 170 172 171 165 167 170 166 162 160 156 166 151 145 135 149 161 130 160 139 115 140 149 124 122 109 86 33 79 81 105 85 72 90 65 75 44 52 41 41 52 36 20 18 4 335 327 329 327 328 324 323 311 322
109 289 304 296 284 292 281 265 244 208 219 182 214 245 250 241 146 271 235 245 232 232 234 231 200 202 208 204 192 197 197 204 201 200 191 194 199 200 199 196 199 191 165 178 174 168 168 163 168 170 162 159 157 159 166 149 143 145 158 135 139 162 123 131 164 117 104 104 106 102 87 84 95 79 89 67 69 80 73 62 52 60 48 57 40 21 360 338 317 307 309 323 325 317 306 309 315
304 316 308 282 273 258 253 250 244 219 244 193 198 245 264 229 171 240 256 66 175 206 225 222 220 217 208 211 209 201 203 208 200 185 197 192 202 200 196 195 200 184 172 179 174 158 164 169 166 171 162 157 156 162 158 148 151 148 150 134 154 148 141 165 145 126 114 110 120 120 107 85 113 109 102 85 100 92 93 88 85 73 73 56 29 4 338 319 319 311 321 332 319 314 318 314 309
337 5 311 281 276 274 255 235 229 184 236 169 179 287 267 220 231 238 250 207 197 201 221 218 215 217 211 213 215 211 211 200 190 196 205 204 202 195 200 198 191 189 179 170 166 159 169 168 167 172 160 156 158 160 158 150 149 144 149 151 144 143 164 149 139 137 127 128 128 118 124 146 108 125 121 132 116 104 110 101 75 65 70 50 10 329 342 339 332 324 327 340 330 327 315 315 327
257 240 250 288 282 265 258 236 223 170 207 136 131 272 244 239 222 243 248 211 208 223 223 219 220 218 217 216 218 218 212 200 200 205 205 205 200 196 200 194 188 186 170 169 159 170 166 164 165 166 160 159 162 155 154 145 144 141 150 140 137 148 171 149 147 137 133 136 131 130 131 111 115 99 118 108 80 100 105 96 86 72 61 44 331 354 3 320 309 325 338 341 321 323 322 319 327
237 267 242 248 310 262 265 231 167 171 131 151 164 232 258 274 239 227 242 177 183 208 216 218 220 223 223 221 221 219 214 206 209 207 203 202 201 195 196 186 183 178 159 171 174 167 160 165 165 167 157 160 163 153 155 149 142 148 155 140 146 164 163 145 143 138 142 143 142 149 135 123 106 116 88 106 106 88 85 90 81 85 81 41 32 347 334 314 318 348 339 332 320 327 319 318 321
215 337 244 234 213 266 279 78 147 182 168 193 138 258 256 254 274 255 212 171 179 206 216 218 221 228 228 223 223 223 222 214 217 212 203 202 198 194 186 187 178 175 177 174 163 161 165 167 168 159 156 162 170 154 153 149 149 151 153 144 151 169 154 148 151 153 159 150 148 147 138 131 122 125 115 100 112 113 115 96 97 91 86 60 21 345 350 336 346 338 326 327 340 322 322 312 315
222 203 253 256 241 266 293 190 198 172 106 207 179 230 250 243 237 21 104 166 181 206 219 218 218 225 230 228 221 221 226 226 221 214 207 201 203 189 185 183 180 181 174 167 166 165 164 167 166 160 162 164 168 151 148 145 146 150 152 146 152 154 154 150 154 158 155 149 145 149 150 141 131 128 126 147 134 126 117 119 101 96 83 58 14 353 351 339 338 325 325 353 343 308 311 308 306
257 201 233 231 242 270 259 357 278 189 137 190 224 240 246 249 252 161 209 192 197 218 225 237 241 235 237 236 223 217 218 220 217 207 205 195 197 190 181 183 180 177 175 169 166 167 167 167 166 163 158 159 162 152 149 146 145 145 138 137 143 159 157 155 154 154 159 161 149 146 149 144 138 141 141 142 126 154 147 120 97 92 75 38 19 359 325 325 317 355 347 328 313 305 309 311 303
236 242 276 272 250 230 255 264 195 177 199 224 205 233 257 253 256 275 246 208 219 220 228 245 251 248 252 249 240 222 216 218 222 203 197 193 188 187 175 177 175 173 169 166 163 162 157 161 159 162 158 159 156 150 143 142 139 132 127 131 148 163 164 158 153 160 170 158 149 140 145 144 139 149 151 157 140 120 102 97 86 82 79 59 12 355 337 329 5 6 330 306 297 288 287 292 293
261 267 267 268 275 277 270 266 144 176 194 213 219 225 242 248 244 242 257 253 236 233 228 240 248 252 253 253 243 234 223 225 214 191 186 189 187 180 171 170 169 167 163 161 161 160 156 159 159 161 164 158 152 149 148 146 142 149 145 142 154 163 175 165 162 170 167 154 140 138 149 150 146 150 153 140 131 114 91 95 96 95 147 135 53 3 340 10 349 331 310 309 308 302 285 287 307
257 266 265 264 266 272 267 273 217 201 199 219 224 236 249 260 252 243 253 261 264 260 247 241 240 245 249 251 241 234 232 231 185 178 175 183 181 175 163 160 160 162 162 159 161 168 162 168 164 171 170 164 161 161 164 161 158 155 151 168 173 171 173 165 169 175 164 152 141 143 149 150 140 142 147 148 136 127 135 135 130 139 147 145 85 290 18 342 312 289 283 288 307 315 318 330 309
244 253 261 273 263 267 267 284 139 216 184 247 235 238 247 252 252 247 247 247 252 254 257 254 256 255 258 256 248 236 231 101 128 142 167 170 165 163 157 159 157 163 172 160 169 175 169 170 174 170 170 170 170 169 166 169 172 174 168 174 165 171 168 168 175 179 167 146 146 142 150 152 143 153 153 144 136 137 136 126 132 146 117 119 121 11 283 268 292 291 298 320 305 317 310 325 308
273 264 279 286 269 272 284 272 146 198 159 261 267 263 262 264 259 254 245 243 246 244 248 254 253 260 264 260 247 237 157 156 155 160 160 168 163 164 162 165 171 171 171 173 174 173 172 174 177 173 175 173 172 168 169 173 171 169 166 166 163 161 162 155 160 167 152 141 147 146 158 152 152 157 145 143 142 142 143 141 157 151 127 108 42 309 305 295 286 295 288 278 315 305 286 286 309
251 261 268 253 261 281 289 151 189 179 194 238 228 271 273 275 266 260 255 250 249 245 245 256 253 253 257 257 249 226 187 167 170 165 169 167 165 167 166 172 173 170 175 176 176 179 176 178 177 176 177 175 172 173 172 170 165 161 155 155 152 149 155 147 130 138 136 137 155 158 166 158 160 159 151 145 142 152 154 152 135 131 159 132 145 245 261 269 266 275 299 314 316 305 310 287 322
221 220 237 257 256 247 238 261 182 207 229 250 312 280 267 251 264 258 249 238 242 248 246 248 256 257 251 255 262 196 179 173 166 169 167 163 170 179 180 178 171 178 183 184 181 181 184 181 179 176 177 178 176 171 169 163 149 132 118 96 96 95 94 118 125 141 157 158 155 167 177 165 161 154 152 155 155 155 152 149 144 138 123 138 150 234 249 237 243 248 272 273 251 241 290 289 314
253 213 212 240 252 263 266 276 309 342 297 160 164 308 246 222 226 242 252 203 225 236 227 241 242 243 260 254 245 222 183 171 176 180 179 176 176 175 178 179 183 187 190 191 183 182 178 177 176 176 178 178 178 173 168 164 160 154 149 146 149 149 158 165 177 177 176 178 180 167 168 165 156 152 156 158 156 150 152 147 142 144 149 167 186 210 233 269 281 271 246 232 255 253 249 292 297
271 242 211 241 252 255 263 280 331 266 243 307 358 279 293 167 243 232 229 186 220 228 219 237 245 239 236 252 251 206 180 180 183 177 166 166 178 177 185 189 191 192 197 180 179 182 180 178 179 179 179 179 177 174 171 162 163 169 172 173 171 173 172 189 176 169 167 169 164 166 164 157 156 156 159 158 155 154 151 148 145 146 156 167 198 212 245 244 242 245 259 256 243 260 299 285 278
262 108 340 99 269 259 253 246 203 247 315 264 147 125 276 286 238 226 221 212 222 228 232 238 247 244 214 226 244 201 181 178 180 180 177 179 178 182 188 193 190 197 183 177 183 182 183 182 179 180 178 178 179 174 176 172 171 174 175 178 177 179 180 173 174 174 165 160 162 158 153 157 159 160 161 161 157 155 153 149 148 150 155 181 195 212 219 234 244 265 260 254 263 249 244 254 272
237 300 23 70 46 14 353 230 260 257 329 267 174 163 266 265 305 193 182 222 227 230 227 238 245 251 231 213 220 207 185 189 181 174 177 180 184 189 189 189 195 182 182 186 187 185 181 181 179 179 181 178 180 178 177 178 178 177 179 176 180 186 174 167 163 156 150 153 149 154 155 160 161 165 163 159 157 156 152 153 151 151 160 191 199 215 223 223 230 242 263 272 261 267 242 250 271
247 145 66 78 57 49 222 229 289 308 265 253 169 172 216 275 187 215 196 194 215 223 223 234 242 245 244 223 211 200 188 189 188 178 177 182 183 184 184 179 178 191 187 184 183 180 183 180 181 182 185 181 179 179 178 180 180 176 181 185 182 177 169 158 152 152 150 153 154 161 160 158 163 164 165 158 155 157 152 152 152 159 177 195 203 214 219 231 242 247 249 249 248 251 252 254 252
154 145 94 37 348 212 325 150 144 349 249 252 180 193 180 273 258 176 157 207 205 208 222 233 244 253 254 229 195 182 184 177 175 175 176 175 175 170 165 176 186 178 182 180 184 186 184 184 183 186 186 179 178 179 179 184 183 186 186 185 182 176 169 158 154 160 156 157 162 166 167 167 165 166 161 162 159 158 158 156 156 169 181 192 201 204 218 219 229 233 230 236 250 251 263 256 263
131 114 144 24 309 32 19 319 108 205 271 251 182 189 185 233 303 231 186 184 192 188 203 211 230 239 241 231 195 188 174 169 165 164 169 162 158 168 170 179 178 181 177 185 188 185 187 187 184 185 187 185 180 179 182 187 188 191 190 187 185 182 173 169 170 169 172 171 170 168 166 163 168 160 158 158 166 161 157 158 160 170 186 195 206 209 217 215 213 208 261 274 270 264 258 258 252
155 127 117 156 255 49 282 74 272 204 249 122 177 173 232 234 229 154 252 233 204 203 208 203 211 225 230 218 195 182 169 159 167 171 167 169 173 174 181 181 176 180 187 188 187 186 188 188 187 186 192 186 184 180 186 188 190 193 191 188 189 183 184 179 176 174 175 172 168 166 167 170 162 158 163 159 166 162 156 158 165 177 190 199 204 203 203 190 177 228 238 251 248 249 246 247 250
164 164 164 140 251 226 260 241 222 269 257 269 188 181 223 263 255 203 236 221 204 204 213 213 197 205 208 202 192 173 172 173 176 174 180 181 179 181 183 182 183 186 187 187 186 187 190 191 190 190 193 187 183 184 187 189 194 193 190 189 187 184 187 184 183 177 177 174 171 171 172 170 168 169 162 167 164 156 154 160 164 174 178 185 189 204 222 217 208 217 226 242 250 248 249 250 252
199 181 146 196 187 183 242 218 242 242 261 300 255 97 236 85 248 186 208 221 204 198 209 218 215 208 212 188 174 160 161 180 174 180 189 189 187 182 184 187 185 186 186 186 186 192 189 193 192 193 190 191 188 189 186 192 192 191 189 189 186 186 184 183 184 179 174 172 174 168 167 164 162 162 160 156 148 147 149 147 155 160 182 192 190 196 191 193 204 217 217 230 248 247 249 252 255
211 175 199 300 229 166 233 240 252 277 333 300 200 212 215 233 217 200 211 216 215 201 203 214 233 225 155 143 165 177 186 182 189 191 198 209 197 188 190 192 191 186 186 186 189 189 194 198 195 195 192 190 190 187 191 191 191 188 189 188 188 184 181 176 176 173 171 169 167 166 164 160 154 145 144 140 142 142 147 150 158 173 178 185 193 193 192 192 201 210 251 254 261 256 257 257 255
229 127 200 212 67 186 258 291 277 307 316 262 248 273 258 311 267 236 230 205 215 210 205 216 224 224 193 192 201 192 196 192 190 199 204 197 197 210 201 195 192 190 186 190 193 193 196 193 193 195 194 192 193 192 190 189 187 188 193 190 186 184 182 180 177 173 167 162 157 158 156 154 143 141 142 140 140 142 149 154 166 174 183 184 181 181 185 191 193 212 230 245 254 255 256 253 255
96 199 251 359 355 102 159 246 10 227 236 273 287 262 287 309 290 94 194 197 204 193 203 216 216 216 203 213 214 205 201 202 204 217 208 200 202 202 201 208 203 197 195 193 196 196 197 197 195 191 189 193 195 190 189 187 188 191 190 191 190 187 183 179 172 169 162 155 153 149 146 146 156 150 142 144 140 147 150 157 164 172 174 174 181 189 191 200 203 219 226 239 239 243 252 255 252
138 189 321 118 252 277 255 165 255 260 255 268 270 282 270 255 261 284 211 201 203 199 207 215 214 214 215 222 235 228 199 183 202 203 199 205 206 206 205 206 205 208 206 202 198 192 193 198 200 197 197 196 190 188 189 189 189 190 189 190 187 185 180 175 169 162 158 160 158 157 158 156 142 143 142 144 148 152 154 165 165 178 180 185 185 193 191 196 202 224 235 242 244 242 250 258 251
130 46 331 141 84 241 145 200 215 174 257 277 274 284 275 249 228 258 210 200 193 197 208 210 208 209 210 221 227 227 202 206 201 203 210 212 210 208 206 202 201 204 200 200 196 193 198 199 193 199 198 190 186 190 188 191 192 185 186 180 186 182 177 173 168 164 164 165 164 159 155 154 158 147 149 146 153 157 160 167 171 174 181 180 186 191 184 195 210 224 232 244 254 252 259 259 263
244 243 266 279 204 222 103 295 218 206 235 229 267 277 274 274 207 230 198 188 188 195 201 200 214 218 215 212 217 229 219 208 210 212 214 211 214 217 212 210 212 208 208 200 195 200 201 189 197 195 192 192 193 194 186 195 183 189 180 184 181 176 176 170 164 166 163 164 161 158 159 155 141 154 149 151 156 159 158 164 168 174 178 184 184 194 183 187 206 226 233 241 251 256 259 261 265
198 191 214 209 195 229 246 256 216 244 230 238 241 254 270 269 50 131 165 189 191 199 193 200 217 222 220 223 232 225 222 224 221 216 213 216 220 218 215 205 200 193 206 203 206 201 198 199 198 194 194 197 196 190 193 189 186 186 185 182 176 171 169 167 166 167 165 163 160 158 154 148 154 152 150 152 155 154 157 165 170 178 181 185 189 181 186 185 224 236 251 243 249 253 256 263 265